Weather in Hisar

Bulgaria     41°32′22″N   25°39′01″E
temp.,
°C
wind,
m/s
gust,
m/s
humid.,
%
clouds,
%
prec.,
mm/h
press.,
hPa
HPBL,
m
16 june, wed
wed1600:00+12wsw2397100 2.1 101391
03:00+12sw2293100 2.8 101161
06:00+12wsw2295100 1.1 101075
09:00+13w249496 1.7 1011126
12:00+15n4109398 1.7 1012542
15:00+20n7117731 3.3 10121145
18:00+20n597445 1.6 10131109
21:00+15nw119088 2.4 101411
17 june, thu
thu1700:00+14wsw119092 0.0 101611
03:00+14wnw11895 0.0 101711
06:00+14wsw118949 0.0 101610
09:00+19wsw00748 0.0 1017247
12:00+23ssw12585 0.0 10171286
15:00+23ssw3366100 2.5 10171110
18:00+22sw3472100 1.8 1016587
21:00+18sse118892 6.4 101713
18 june, fri
fri1800:00+16e119595 1.8 101811
03:00+15wnw1196100 1.9 101710
06:00+14nw1196100 0.1 101711
09:00+18nnw118793 0.1 1017195
12:00+22ne1168100 0.0 1016848
15:00+22n4471100 1.3 1014999
18:00+17n1292100 2.8 101565
21:00+16wnw1197100 3.6 101418
19 june, sat
sat1900:00+15wnw1197100 0.0 101413
03:00+16wsw2297100 0.4 101348
06:00+16wsw1196100 0.7 101326
09:00+16nnw119699 2.2 101374
12:00+21nnw567977 1.6 10121023
15:00+21nnw687760 3.6 10121160
18:00+21n57736 0.5 1012940
21:00+17nne22925 0.5 101320
20 june, sun
sun2000:00+16n119348 0.1 101412
03:00+15nnw239877 0.1 101472
06:00+15n239998 0.0 1015146
09:00+16n2399100 2.9 1015178
12:00+19n358598 1.8 1015786
15:00+20n3579100 2.6 1014820
18:00+21nne347191 0.2 1013908
21:00+17ene11894 0.8 101311